TimeCST,TemperatureF,Dew PointF,Humidity,Sea Level PressureIn,VisibilityMPH,Wind Direction,Wind SpeedMPH,Gust SpeedMPH,PrecipitationIn,Events,Conditions,WindDirDegrees,DateUTC
12:58 AM,51.8,12.2,21,30.03,10.0,South,20.7,-,N/A,,Clear,180,2013-03-07 06:58:00
1:58 AM,50.0,10.4,20,30.02,10.0,South,17.3,28.8,N/A,,Clear,180,2013-03-07 07:58:00
2:58 AM,50.0,12.2,22,30.00,10.0,South,16.1,-,N/A,,Clear,180,2013-03-07 08:58:00
3:58 AM,48.2,14.0,25,30.00,10.0,South,11.5,-,N/A,,Clear,180,2013-03-07 09:58:00
4:58 AM,48.2,14.0,25,30.01,10.0,South,8.1,-,N/A,,Clear,180,2013-03-07 10:58:00
5:58 AM,46.4,14.0,27,30.03,10.0,South,6.9,-,N/A,,Clear,180,2013-03-07 11:58:00
6:58 AM,42.8,14.0,31,30.06,10.0,South,13.8,-,N/A,,Clear,180,2013-03-07 12:58:00
7:58 AM,50.0,15.8,26,30.07,10.0,South,13.8,-,N/A,,Clear,190,2013-03-07 13:58:00
8:58 AM,53.6,23.0,30,30.08,10.0,South,23.0,28.8,N/A,,Clear,180,2013-03-07 14:58:00
9:58 AM,59.0,30.2,34,30.09,10.0,South,23.0,29.9,N/A,,Scattered Clouds,170,2013-03-07 15:58:00
10:58 AM,62.6,32.0,32,30.05,10.0,South,23.0,32.2,N/A,,Clear,180,2013-03-07 16:58:00
11:58 AM,66.2,32.0,28,30.04,10.0,South,20.7,-,N/A,,Clear,190,2013-03-07 17:58:00
12:58 PM,69.8,33.8,27,30.01,10.0,South,21.9,-,N/A,,Clear,170,2013-03-07 18:58:00
1:58 PM,71.6,35.6,27,29.98,10.0,South,20.7,-,N/A,,Clear,170,2013-03-07 19:58:00
2:58 PM,73.4,37.4,27,29.94,10.0,South,20.7,-,N/A,,Clear,170,2013-03-07 20:58:00
3:58 PM,73.4,37.4,27,29.94,10.0,SSE,18.4,26.5,N/A,,Clear,160,2013-03-07 21:58:00
4:58 PM,73.4,39.2,29,29.93,10.0,South,19.6,25.3,N/A,,Clear,170,2013-03-07 22:58:00
5:58 PM,69.8,39.2,33,29.94,10.0,SSE,18.4,-,N/A,,Partly Cloudy,160,2013-03-07 23:58:00
6:58 PM,68.0,41.0,37,29.97,10.0,SSE,20.7,-,N/A,,Scattered Clouds,150,2013-03-08 00:58:00
7:58 PM,64.4,42.8,45,29.97,10.0,SSE,16.1,-,N/A,,Mostly Cloudy,150,2013-03-08 01:58:00
8:58 PM,62.6,42.8,48,29.96,10.0,SSE,17.3,26.5,N/A,,Scattered Clouds,150,2013-03-08 02:58:00
9:58 PM,60.8,44.6,55,29.97,10.0,SSE,18.4,-,N/A,,Clear,150,2013-03-08 03:58:00
10:58 PM,59.0,44.6,59,29.97,10.0,SSE,15.0,-,N/A,,Clear,160,2013-03-08 04:58:00
11:58 PM,59.0,46.4,63,29.95,10.0,SSE,10.4,-,N/A,,Clear,150,2013-03-08 05:58:00